CAPE
0 0 0 0 0 0 0 0 0 0 0 0 0 0 0 0 0 0 0 0 0 0 0 0 0 0 0 0 0 0 0 0 0 0 0 3 0 0 0 0 0 0 0 0 0
0 0 0 0 0 0 0 0 0 0 0 0 0 0 0 0 0 0 0 0 0 0 0 0 0 0 0 0 0 0 0 0 0 0 0 4 0 0 0 0 0 0 0 0 0
0 0 0 0 0 0 0 0 0 0 0 0 0 0 0 0 0 0 0 0 0 0 0 0 0 0 0 0 0 0 0 0 0 0 0 0 0 0 0 0 0 0 0 0 0
0 0 0 0 0 0 0 0 0 0 0 0 0 0 0 0 0 0 0 0 0 0 0 0 0 0 0 0 0 0 0 0 0 0 0 0 0 0 0 35 0 0 0 0 0
0 0 0 0 0 0 0 0 0 0 0 0 0 0 0 0 0 0 0 0 0 0 0 0 0 0 0 0 0 0 0 0 0 0 0 0 0 0 0 0 0 0 0 0 0
0 0 0 0 0 0 0 0 0 0 0 0 0 0 0 0 0 0 0 0 0 0 0 0 0 0 0 0 0 0 0 0 0 0 0 1 0 0 0 0 0 0 0 0 0
3 1 0 0 0 0 0 0 0 0 0 0 0 0 0 0 0 0 0 0 0 0 0 0 0 0 0 0 0 0 0 0 0 0 0 0 11 0 0 0 0 0 0 0 0
1 0 0 0 0 0 0 0 0 0 1 0 0 0 0 0 0 0 0 0 0 0 0 0 0 0 0 0 0 0 0 8 0 0 0 0 0 50 0 0 0 0 0 0 0
0 0 0 0 0 0 0 0 0 0 0 0 0 0 0 0 0 0 0 0 0 0 0 0 0 0 0 0 0 0 0 0 0 0 0 0 0 0 0 0 0 0 0 0 0
0 0 0 0 0 0 0 0 0 0 0 0 0 0 0 0 0 0 0 0 0 0 0 0 0 0 0 0 0 0 0 0 0 0 0 0 0 0 0 0 0 0 0 0 0
0 0 0 0 0 0 0 0 0 0 0 0 0 0 0 0 0 0 0 0 0 0 0 0 0 0 0 0 0 0 0 0 0 0 0 0 0 0 0 0 0 0 0 0 0
0 0 1 1 0 0 0 0 0 0 0 0 0 0 0 0 0 0 0 0 0 0 0 0 0 0 0 0 0 0 0 0 0 0 0 0 0 0 0 0 0 0 0 0 0
2 2 2 2 1 0 0 0 0 0 0 0 0 0 0 0 0 0 0 0 0 0 0 0 0 0 0 0 0 0 0 0 0 0 0 0 0 0 0 0 0 0 0 0 0
3 1 0 0 0 0 0 0 0 0 0 0 0 0 0 0 0 0 0 0 0 0 0 0 0 0 0 0 0 0 0 0 0 0 0 0 0 0 0 0 0 0 0 0 0
1 1 0 0 0 0 0 0 0 0 0 0 0 0 0 0 0 0 0 0 0 0 0 0 0 0 0 0 0 0 0 0 0 0 0 0 0 0 0 0 0 0 0 0 0
0 1 0 0 0 0 0 0 0 0 0 0 0 0 0 0 0 0 0 0 0 0 0 0 0 0 0 0 0 0 0 0 0 0 0 0 0 0 0 0 0 0 0 0 0
0 0 0 0 0 0 0 0 0 0 0 0 0 0 0 0 0 0 0 0 0 0 0 0 0 0 0 0 0 0 0 0 0 0 0 0 0 0 0 0 0 0 0 0 0
0 0 0 0 0 0 0 0 0 0 0 0 0 0 0 0 0 0 0 0 0 0 0 0 0 0 0 0 0 0 0 0 0 0 0 0 0 0 0 0 0 0 0 0 0
0 0 0 0 0 0 0 0 0 0 0 0 0 0 0 0 0 0 0 0 0 0 0 0 0 0 0 0 0 0 0 0 0 0 0 0 0 0 0 0 0 0 0 0 0
0 0 0 0 0 0 0 0 0 0 0 0 0 0 0 0 0 0 0 0 0 0 0 0 0 0 0 0 0 0 0 0 0 0 0 0 0 0 0 0 0 0 0 0 0
0 0 0 0 0 0 0 0 0 0 0 0 0 0 0 0 0 0 0 0 0 0 0 0 0 0 0 0 0 0 0 0 0 0 0 0 0 0 0 0 0 0 0 0 0
0 0 0 0 0 0 0 0 0 0 0 0 0 0 0 0 0 0 0 0 0 0 0 0 0 0 0 0 0 0 0 0 0 0 0 0 0 0 0 0 0 0 0 0 0
0 1 0 0 0 0 0 0 0 0 0 0 0 0 0 0 0 0 0 0 0 0 0 0 0 0 0 0 0 0 0 0 0 0 0 0 0 0 0 0 0 0 0 0 0
0 0 0 0 0 0 0 0 0 0 0 0 0 0 0 0 0 0 0 0 0 0 0 0 0 0 0 0 0 0 0 0 0 0 0 0 0 0 0 0 0 0 0 0 0
0 0 0 0 0 0 0 0 0 0 0 0 0 0 0 0 0 0 0 0 0 0 0 0 0 0 0 0 0 0 0 0 0 0 0 0 0 0 0 0 0 0 0 0 0
0 0 0 0 0 0 0 0 0 0 0 0 0 0 0 0 0 0 0 0 0 0 0 0 0 0 0 0 0 0 0 0 0 0 0 0 0 0 0 0 0 0 0 0 0
0 0 0 0 0 0 0 0 0 0 0 0 0 0 0 0 0 0 0 0 0 0 0 0 0 0 0 0 0 0 0 0 0 0 0 0 0 0 0 0 0 0 0 0 0
CIN
-0 -0 -0 -0 -0 -0 -0 -0 -0 -0 -0 -0 -0 -0 -0 -0 -0 -0 -0 -0 -0 -0 -0 -0 -0 -0 -0 -0 -0 -0 -0 -0 -0 -0 -0 -238 -0 -0 -0 -0 -0 -0 -0 -0 -0
-0 -0 -0 -0 -0 -0 -0 -0 -0 -0 -0 -0 -0 -0 -0 -0 -0 -0 -0 -0 -0 -0 -0 -0 -0 -0 -0 -0 -0 -0 -0 -0 -0 -0 -0 -402 -0 -0 -0 -0 -0 -0 -0 -0 -0
-0 -0 -0 -0 -0 -0 -0 -0 -0 -0 -0 -0 -0 -0 -0 -0 -0 -0 -0 -0 -0 -0 -0 -0 -0 -0 -0 -0 -0 -0 -0 -0 -0 -0 -0 -0 -0 -0 -0 -0 -0 -0 -0 -0 -0
-0 -0 -0 -0 -0 -0 -0 -0 -0 -0 -0 -0 -0 -0 -0 -0 -0 -0 -0 -0 -0 -0 -0 -0 -0 -0 -0 -0 -0 -0 -0 -0 -0 -0 -0 -0 -0 -0 -0 -67 -0 -0 -0 -0 -0
-0 -0 -0 -0 -0 -0 -0 -0 -0 -0 -0 -0 -0 -0 -0 -0 -0 -0 -0 -0 -0 -0 -0 -0 -0 -0 -0 -0 -0 -0 -0 -0 -0 -0 -0 -0 -0 -0 -0 -0 -0 -0 -0 -0 -0
-0 -0 -0 -0 -0 -0 -0 -0 -0 -0 -0 -0 -0 -0 -0 -0 -0 -0 -0 -0 -0 -0 -0 -0 -0 -0 -0 -0 -0 -0 -0 -0 -0 -0 -0 -158 -0 -0 -0 -0 -0 -0 -0 -0 -0
-0 -0 -0 -0 -0 -0 -0 -0 -0 -0 -0 -0 -0 -0 -0 -0 -0 -0 -0 -0 -0 -0 -0 -0 -0 -0 -0 -0 -0 -0 -0 -0 -0 -0 -0 -0 -143 -0 -0 -0 -0 -0 -0 -0 -0
-0 -0 -0 -0 -0 -0 -0 -0 -0 -0 -0 -0 -0 -0 -0 -0 -0 -0 -0 -0 -0 -0 -0 -0 -0 -0 -0 -0 -0 -0 -0 -59 -0 -0 -0 -0 -0 -110 -0 -0 -0 -0 -0 -0 -0
-0 -0 -0 -0 -0 -0 -0 -0 -0 -0 -0 -0 -0 -0 -0 -0 -0 -0 -0 -0 -0 -0 -0 -0 -0 -0 -0 -0 -0 -0 -0 -0 -0 -0 -0 -0 -0 -0 -0 -0 -0 -0 -0 -0 -0
-0 -0 -0 -0 -0 -0 -0 -0 -0 -0 -0 -0 -0 -0 -0 -0 -0 -0 -0 -0 -0 -0 -0 -0 -0 -0 -0 -0 -0 -0 -0 -0 -0 -0 -0 -0 -0 -0 -0 -0 -0 -0 -0 -0 -0
-0 -0 -0 -0 -0 -0 -0 -0 -0 -0 -0 -0 -0 -0 -0 -0 -0 -0 -0 -0 -0 -0 -0 -0 -0 -0 -0 -0 -0 -0 -0 -0 -0 -0 -0 -0 -0 -0 -0 -0 -0 -0 -0 -0 -0
-0 -0 -0 -0 -0 -0 -0 -0 -0 -0 -0 -0 -0 -0 -0 -0 -0 -0 -0 -0 -0 -0 -0 -0 -0 -0 -0 -0 -0 -0 -0 -0 -0 -0 -0 -0 -0 -0 -0 -0 -0 -0 -0 -0 -0
-0 -0 -0 -0 -0 -0 -0 -0 -0 -0 -0 -0 -0 -0 -0 -0 -0 -0 -0 -0 -0 -0 -0 -0 -0 -0 -0 -0 -0 -0 -0 -0 -0 -0 -0 -0 -0 -0 -0 -0 -0 -0 -0 -0 -0
-0 -0 -0 -0 -0 -0 -0 -0 -0 -0 -0 -0 -0 -0 -0 -0 -0 -0 -0 -0 -0 -0 -0 -0 -0 -0 -0 -0 -0 -0 -0 -0 -0 -0 -0 -0 -0 -0 -0 -0 -0 -0 -0 -0 -0
-0 -0 -0 -0 -0 -0 -0 -0 -0 -0 -0 -0 -0 -0 -0 -0 -0 -0 -0 -0 -0 -0 -0 -0 -0 -0 -0 -0 -0 -0 -0 -0 -0 -0 -0 -0 -0 -0 -0 -0 -0 -0 -0 -0 -0
-0 -0 -0 -0 -0 -0 -0 -0 -0 -0 -0 -0 -0 -0 -0 -0 -0 -0 -0 -0 -0 -0 -0 -0 -0 -0 -0 -0 -0 -0 -0 -0 -0 -0 -0 -0 -0 -0 -0 -0 -0 -0 -0 -0 -0
-0 -0 -0 -0 -0 -0 -0 -0 -0 -0 -0 -0 -0 -0 -0 -0 -0 -0 -0 -0 -0 -0 -0 -0 -0 -0 -0 -0 -0 -0 -0 -0 -0 -0 -0 -0 -0 -0 -0 -0 -0 -0 -0 -0 -0
-0 -0 -0 -0 -0 -0 -0 -0 -0 -0 -0 -0 -0 -0 -0 -0 -0 -0 -0 -0 -0 -0 -0 -0 -0 -0 -0 -0 -0 -0 -0 -0 -0 -0 -0 -0 -0 -0 -0 -0 -0 -0 -0 -0 -0
-0 -0 -0 -0 -0 -0 -0 -0 -0 -0 -0 -0 -0 -0 -0 -0 -0 -0 -0 -0 -0 -0 -0 -0 -0 -0 -0 -0 -0 -0 -0 -0 -0 -0 -0 -0 -0 -0 -0 -0 -0 -0 -0 -0 -0
-0 -0 -0 -0 -0 -0 -0 -0 -0 -0 -0 -0 -0 -0 -0 -0 -0 -0 -0 -0 -0 -0 -0 -0 -0 -0 -0 -0 -0 -0 -0 -0 -0 -0 -0 -0 -0 -0 -0 -0 -0 -0 -0 -0 -0
-0 -0 -0 -0 -0 -0 -0 -0 -0 -0 -0 -0 -0 -0 -0 -0 -0 -0 -0 -0 -0 -0 -0 -0 -0 -0 -0 -0 -0 -0 -0 -0 -0 -0 -0 -0 -0 -0 -0 -0 -0 -0 -0 -0 -0
-0 -0 -0 -0 -0 -0 -0 -0 -0 -0 -0 -0 -0 -0 -0 -0 -0 -0 -0 -0 -0 -0 -0 -0 -0 -0 -0 -0 -0 -0 -0 -0 -0 -0 -0 -0 -0 -0 -0 -0 -0 -0 -0 -0 -0
-0 -0 -0 -0 -0 -0 -0 -0 -0 -0 -0 -0 -0 -0 -0 -0 -0 -0 -0 -0 -0 -0 -0 -0 -0 -0 -0 -0 -0 -0 -0 -0 -0 -0 -0 -0 -0 -0 -0 -0 -0 -0 -0 -0 -0
-0 -0 -1 -0 -0 -0 -0 -0 -0 -0 -0 -0 -0 -0 -0 -0 -0 -0 -0 -0 -0 -0 -0 -0 -0 -0 -0 -0 -0 -0 -0 -0 -0 -0 -0 -0 -0 -0 -0 -0 -0 -0 -0 -0 -0
-0 -0 -0 -0 -0 -0 -0 -0 -0 -0 -0 -0 -0 -0 -0 -0 -0 -0 -0 -0 -0 -0 -0 -0 -0 -0 -0 -0 -0 -0 -0 -0 -0 -0 -0 -0 -0 -0 -0 -0 -0 -0 -0 -0 -0
-0 -0 -0 -0 -0 -0 -0 -0 -0 -0 -0 -0 -0 -0 -0 -0 -0 -0 -0 -0 -0 -0 -0 -0 -0 -0 -0 -0 -0 -0 -0 -0 -0 -0 -0 -0 -0 -0 -0 -0 -0 -0 -0 -0 -0
-0 -0 -0 -0 -0 -0 -0 -0 -0 -0 -0 -0 -0 -0 -0 -0 -0 -0 -0 -0 -0 -0 -0 -0 -0 -0 -0 -0 -0 -0 -0 -0 -0 -0 -0 -0 -0 -0 -0 -0 -0 -0 -0 -0 -0
Wind_Speed
10 11 12 12 12 13 13 13 13 14 16 17 17 19 18 17 15 2 5 4 0 15 9 9 4 4 4 4 2 3 1 2 4 5 2 10 7 2 4 7 3 5 2 3 24
12 12 13 13 12 12 13 14 13 14 15 17 17 19 17 16 4 4 10 7 5 12 8 7 5 7 4 3 3 3 3 6 6 5 2 8 7 11 6 5 6 4 8 18 23
13 13 14 15 14 13 13 13 15 15 15 16 18 19 18 14 4 3 10 4 10 7 3 4 5 5 3 2 5 5 5 5 6 7 4 5 6 7 8 7 11 14 17 20 23
12 12 14 15 15 15 14 14 15 16 16 16 18 18 21 3 0 2 7 2 9 6 3 4 4 5 5 6 6 4 10 5 3 3 3 5 10 6 12 3 3 6 21 23 24
9 11 12 14 15 15 15 15 15 17 17 16 16 16 7 3 8 0 2 3 2 4 5 3 4 5 6 5 6 6 4 3 3 4 2 6 3 5 9 3 6 14 19 21 20
9 11 12 15 16 16 17 16 15 16 17 16 14 13 1 4 2 1 6 5 3 3 4 6 4 5 4 4 7 4 3 3 1 3 3 3 1 2 2 7 10 13 15 17 19
9 11 12 15 16 16 18 18 17 17 18 14 9 3 2 13 1 7 4 3 2 3 4 5 4 5 2 2 1 2 3 1 3 3 2 4 5 11 6 9 10 11 12 15 16
9 10 12 14 16 18 19 19 19 19 15 8 5 2 7 4 1 9 2 4 5 4 3 1 4 3 1 1 3 4 5 4 4 5 2 3 12 10 6 10 10 11 12 14 16
9 10 11 14 16 18 20 21 19 9 0 6 4 2 8 6 2 3 4 2 3 4 1 3 3 3 2 1 2 4 8 5 4 4 4 4 9 2 4 7 8 10 12 13 14
10 10 12 15 16 18 21 19 5 2 4 3 2 1 3 3 6 6 2 3 1 4 3 4 4 2 2 1 6 2 2 1 5 2 3 4 15 18 6 7 7 9 11 12 14
10 11 12 16 16 16 13 3 3 1 3 3 1 3 4 10 4 3 1 3 3 5 3 3 2 3 3 3 3 2 2 5 3 5 3 6 14 18 11 4 3 6 10 11 12
9 10 13 16 18 17 2 5 3 1 7 3 6 7 6 3 5 4 0 4 3 4 4 2 2 4 3 3 2 2 4 7 6 1 5 3 11 11 7 3 2 8 11 14 13
9 12 14 15 19 3 3 3 4 4 2 6 4 3 3 7 4 5 2 3 4 5 3 4 2 5 2 2 3 3 4 5 7 1 2 4 4 5 5 6 6 3 4 11 15
10 12 14 19 1 2 1 4 5 4 3 4 2 3 4 3 3 3 2 3 2 6 7 3 0 3 2 3 4 3 3 8 2 2 2 3 7 3 7 9 18 13 7 9 12
11 11 12 9 1 1 3 7 3 2 4 2 1 1 0 4 0 4 1 4 6 5 4 3 3 3 1 4 5 5 1 2 2 4 1 3 2 4 7 10 18 16 8 9 11
12 10 12 1 0 3 7 6 1 3 1 2 2 3 3 1 2 1 2 5 2 4 1 3 2 3 5 2 5 3 2 5 4 2 1 0 2 5 8 9 12 10 9 10 13
10 9 6 3 1 6 5 2 3 4 2 3 1 3 3 3 1 2 3 4 1 3 1 2 3 3 1 2 2 2 2 3 2 0 1 3 1 6 6 9 8 6 8 9 11
9 11 3 3 4 5 2 3 2 1 3 3 2 1 3 2 3 5 3 3 3 2 3 2 4 1 1 2 1 2 3 4 3 3 1 1 1 5 5 7 8 8 8 9 10
10 2 2 2 2 2 4 3 5 4 1 4 2 3 2 2 4 4 4 2 1 2 3 3 3 2 4 2 1 3 2 1 6 2 1 2 4 6 3 8 6 7 7 8 9
2 2 2 4 2 3 4 3 3 3 1 1 2 2 2 4 3 3 2 2 3 2 2 2 1 3 3 1 6 2 5 1 3 2 2 2 4 7 18 16 5 6 7 8 10
1 3 2 3 2 5 3 5 3 5 2 1 2 3 2 2 3 2 2 2 2 3 2 1 1 2 2 6 4 4 3 6 4 2 1 0 4 4 9 9 4 5 6 8 10
1 3 2 2 5 1 3 4 2 4 1 1 3 3 2 2 4 3 3 1 3 2 2 2 3 3 2 2 2 5 3 2 2 3 3 1 4 4 4 4 4 6 7 8 9
2 2 1 4 4 2 2 3 2 2 3 3 2 3 3 3 5 2 1 1 5 3 2 1 4 3 1 1 3 6 5 3 4 3 4 2 4 3 5 6 5 7 7 8 10
0 4 1 4 1 4 4 1 2 2 2 2 2 3 4 4 5 3 2 4 4 3 6 5 4 2 1 3 1 5 7 4 4 3 4 3 4 6 7 4 5 6 7 9 10
1 1 2 4 3 3 1 2 3 2 1 3 3 4 4 4 3 3 1 2 4 6 4 4 5 4 6 8 8 5 7 11 8 3 3 2 2 5 6 2 4 7 8 10 10
2 2 2 1 3 5 1 5 6 1 1 1 6 2 3 5 3 5 4 0 1 5 4 3 4 2 6 9 9 10 7 7 7 4 6 4 4 2 3 5 6 7 9 9 10
1 1 1 2 3 4 4 4 5 4 1 1 5 6 6 3 4 4 4 4 3 2 3 3 5 3 4 2 3 3 4 3 3 3 2 4 3 2 2 2 4 6 7 9 11
Wind_Direction
343 343 341 344 343 339 337 334 330 327 326 324 325 322 325 328 316 176 249 229 106 158 114 136 135 136 155 152 139 153 149 243 249 211 215 151 168 95 93 129 178 160 91 95 142
336 342 337 339 337 333 332 329 327 325 325 323 324 320 324 332 312 271 250 285 157 173 126 154 151 151 163 160 162 186 206 221 227 211 232 176 185 159 176 156 200 173 87 131 146
333 340 334 333 331 329 328 327 322 322 323 323 322 322 324 328 306 257 339 260 158 183 119 154 117 156 183 151 187 173 225 222 268 229 194 176 177 162 164 207 204 203 155 156 161
330 332 329 327 326 323 324 319 318 318 321 321 322 322 320 262 274 355 4 71 145 166 118 133 143 162 198 196 175 208 248 230 329 116 148 185 141 192 204 223 1 195 161 161 171
321 321 322 320 323 320 319 315 315 314 314 313 317 325 350 351 253 312 43 24 162 146 162 171 181 175 197 193 153 223 249 167 312 162 95 143 186 229 230 187 79 127 154 168 174
317 317 320 321 320 316 313 313 310 305 301 302 313 316 253 284 237 121 337 332 188 194 177 168 215 227 235 203 200 216 235 144 114 130 119 219 120 212 103 124 116 145 161 169 174
316 318 317 318 314 312 312 310 304 297 294 293 289 261 157 241 179 319 310 247 218 203 202 207 184 193 179 215 169 193 181 245 133 164 149 211 241 238 124 151 152 155 159 166 172
316 316 314 313 312 313 311 307 303 302 300 270 217 180 249 239 297 300 227 264 221 227 243 341 147 191 265 30 37 231 79 263 107 183 23 228 273 279 152 170 175 166 165 167 167
314 315 314 311 311 312 309 306 304 304 206 135 128 196 261 308 288 309 218 235 176 144 194 91 102 79 36 196 277 352 214 228 335 239 120 232 278 280 182 204 185 176 171 165 154
316 318 316 312 313 315 312 302 280 316 136 193 254 317 286 318 294 312 254 229 185 106 76 50 58 95 82 214 253 286 286 283 273 43 189 221 264 272 225 221 215 180 174 166 159
321 320 320 314 314 319 333 6 9 348 29 211 218 284 306 309 263 279 313 130 104 70 148 32 167 202 254 200 170 175 219 273 259 233 241 249 267 284 300 263 237 178 174 161 154
321 322 324 318 314 321 259 68 97 282 312 278 252 269 275 242 297 294 202 124 117 158 121 61 255 217 181 150 191 233 288 285 283 145 202 287 283 297 343 33 334 199 178 157 139
323 330 326 324 314 356 17 92 331 161 264 296 219 234 218 163 222 266 129 127 115 133 159 167 202 127 178 232 250 254 237 242 261 166 181 286 284 345 51 44 41 58 145 150 153
332 329 332 328 303 323 127 334 324 185 30 301 319 265 175 176 263 225 261 123 65 159 152 202 112 201 170 254 168 278 235 259 193 194 350 347 318 3 14 65 37 18 102 131 141
330 329 334 359 263 184 339 332 291 149 66 278 173 129 149 178 237 13 320 57 151 152 147 220 184 184 252 238 186 255 127 150 135 113 211 80 267 64 17 1 11 25 77 114 128
323 329 333 223 97 289 326 320 221 47 97 27 126 131 135 312 342 96 115 44 107 106 31 227 260 220 221 198 193 125 116 61 64 91 194 68 246 65 14 340 336 35 67 103 121
317 319 315 301 163 332 323 65 53 114 303 334 13 168 168 174 120 50 55 33 123 117 349 293 228 278 230 224 135 112 95 300 254 10 281 121 213 62 14 4 0 59 89 107 121
325 311 264 249 305 339 12 60 104 127 286 327 7 54 107 12 27 31 81 94 46 61 135 183 308 214 295 231 251 173 191 185 233 214 273 161 111 76 84 74 70 83 102 113 121
327 272 281 272 276 105 73 87 190 194 261 328 337 96 34 34 110 83 42 81 297 340 171 169 277 337 27 44 346 143 173 96 107 59 207 12 106 136 140 56 59 82 93 106 125
341 275 17 331 84 62 76 219 229 225 338 245 97 30 110 357 76 65 22 357 328 355 265 182 286 13 5 355 57 35 124 134 40 186 233 74 84 359 347 357 50 81 104 123 134
286 79 324 23 59 51 161 226 266 263 216 188 131 97 86 99 66 71 359 5 352 315 42 112 72 340 39 32 342 12 46 63 108 37 132 357 104 356 327 337 33 104 131 142 147
346 81 340 39 64 39 182 206 309 282 335 352 103 95 95 85 66 87 111 297 343 255 55 26 103 65 97 84 14 61 50 62 110 138 59 31 100 3 1 28 96 113 126 132 137
111 101 22 79 141 224 275 275 252 317 9 16 90 59 51 99 103 79 108 70 355 56 75 135 32 101 70 185 31 46 2 12 88 98 41 41 49 106 86 77 91 122 127 131 136
132 124 73 52 249 145 150 203 282 277 270 68 103 100 93 55 27 123 92 1 8 67 43 87 71 51 140 64 97 53 17 12 75 64 113 59 355 7 34 74 112 121 135 144 150
214 187 125 183 222 141 132 144 171 156 245 35 57 67 119 103 67 94 67 7 37 359 46 72 79 81 51 69 88 87 50 47 73 61 55 101 50 16 12 59 143 148 149 152 155
164 160 53 119 105 119 205 211 180 279 321 288 118 94 88 117 153 182 139 153 162 25 57 26 131 113 67 70 76 76 52 71 63 53 87 91 78 29 82 108 144 164 167 167 162
253 271 81 307 117 123 213 190 202 174 48 1 153 106 81 132 137 102 89 81 73 102 88 70 133 105 158 348 90 65 9 64 94 57 50 59 34 162 132 133 166 178 178 170 168